CZ-3B DEB, 41119

Orbit data source: Space-Track

CZ-3B DEB, 41119 is space debris in HEO originally from a launch on Mon, 19 Dec 2011 UTC launched from the Xichang Space Center, China (XSC). Debris objects in space refer to the collection of defunct objects orbiting the Earth. Examples of debris include non-operational satellites, rocket bodies, and fragments generated from explosions, collisions, or faulty payload assembly.

Loading next visibility...
CZ-3B DEB details
Identifier
41119, 2011-077AJ
Orbit
HEO
Last TLE update1 week ago
Origin
Flag of CNCASC (CN / PRC)
ManufacturerCALT
MissionSpacecraft
Bus & MotorUnknown
MassUnknown
Launch date (UTC)
2011-12-19 (13 years ago)
Launch vehicleUnknown
Launch site
Xichang Space Center, China (XSC)
Object type
Payload
Rocket body
Debris
Shape & HBRUnknown
Radar Cross SectionMedium (>0.1 m² and <1 m²)

Expand to show TLE details & history

TLE from 1 week ago
0 CZ-3B DEB
1 41119U 11077AJ  24341.88311757 -.00000009  00000-0  00000-0 0  9996
2 41119  21.1074 108.1805 7234047  61.0268 351.8737  1.69773822 61530
Epoch: 2024-12-06T21:11Z
Definitive object data (Epoch: 2024-12-06T21:11:41.358Z)
Latitude0.00106°
Longitude73.94621°
Altitude4,145.193 km
Speed7.894 km/s
True Right ascension07h 12m 02s
True Declination0° 00' 04"
Sunlit
Object was in daylight at TLE epoch
Visualization TLE readout
Latitude-17.83224°
Longitude-50.98354°
Altitude44,155.619 km
Speed1.532 km/s
Apparent Right ascension22h 29m 15s
Apparent Declination-22° 32' 17"
Sunlit
Object is in daylight
Visualization observer readout
Local Sidereal Time03:51:53
Azimuth246.822° WSW
Elevation-7.524°
Doppler factor1
Orbital elements
Apogee altitude44,781.647 km
Perigee altitude1,832.677 km
Semi-major axis29,685.299 km
Eccentricity0.7234047
Inclination21.1074°
RAAN108.1805°
Arg. of periapsis61.0268°
True anomaly298.44431°
Mean anomaly351.8737°
Eccentric anomaly333.15968°
Mean motion0.42436 °/min
BSTARUnknown
Orbital period848.34 mins
Loading maneuver chart data...
Loading historical data...
Loading historical data...
Loading historical data...
Loading historical data...
Loading historical data...
Loading historical data...
Loading historical data...

CZ-3B DEB Visibility forecast

Observer location: undefined°, undefined

Span
Click to sort rows by Start time (UTC) header in descending order
Start Az.
Max El. time (UTC)
Max El. Az.
Max El.
End time (UTC)
End Az.
17 mins2024-12-14 13:13:51.427Z224.329° SW2024-12-14 13:20:51.427Z167.54° S24.996°2024-12-14 13:30:51.427Z111.128° ESE
136 mins2024-12-14 23:14:51.427Z139.917° SSE2024-12-15 00:31:51.427Z145.907° SSE11.56°2024-12-15 01:30:51.427Z145.815° SSE
|